Tiempo atmosférico en la estación meteorológica de Degaña, Asturias (1305 m.)



Fecha
DESCASC
Temp. máxima en grados centígrados (hora)
DESCASC
Temp. mínima en grados centígrados (hora)
DESCASC
Temp. media en grados centígrados
DESCASC
Racha de viento máxima en m/sg (hora)
DESCASC
Velocidad máxima media en intervalos de 10 minutos(hora)
DESCASC
Precipitaciones diarias en mm
DESCASC
Precipitaciones de 00:00 a 06:00 en mm
DESCASC
Precipitaciones de 06:00 a 12:00 en mm
DESCASC
Precipitaciones de 12:00 a 18:00 en mm
DESCASC
Precipitaciones de 18:00 a 24:00 en mm
DESCASC
20-10-2019 5.4 (16:30) 1.7 (03:50) 3.6 7.5 (01:40) 2.22 (00:40) 24.8 9 9.2 3.6 3
19-10-2019 7.6 (00:00) 3.7 (17:20) 5.6 6.11 (18:20) 3.61 (17:40) 31 3.4 12.6 13.4 1.6
18-10-2019 10.2 (15:30) 5.7 (08:40) 7.9 5.28 (20:30) 1.94 (20:40) 1.8 0 0 0 1.8
17-10-2019 13.3 (16:00) 7.9 (00:00) 10.6 5.56 (03:30) 2.5 (01:10) 2.2 2 0.2 0 0
16-10-2019 11.9 (14:30) 6.7 (00:00) 9.3 11.11 (02:30) 3.06 (07:40) 6.4 0.4 1.2 1.8 3
15-10-2019 6.9 (23:59) 2.7 (00:00) 4.8 6.67 (07:20) 2.22 (07:30) 3.6 2 0 0.8 0.8
14-10-2019 12 (00:00) 2.2 (00:00) 7.1 10.83 (15:40) 3.89 (00:50) 21 6.4 4.4 4.8 5.4
13-10-2019 13.9 (00:00) 10 (00:00) 11.9 13.33 (00:50) 4.44 (23:50) 13 0 5.6 7.4 0
12-10-2019 20.3 (16:10) 10.8 (00:00) 15.5 13.61 (23:50) 3.89 (18:00) 0 0 0 0 0
11-10-2019 21 (16:30) 8.8 (00:00) 14.9 7.5 (17:20) 2.78 (00:30) 0 0 0 0 0
10-10-2019 19.4 (15:40) 2.6 (00:00) 11 4.17 (23:20) 2.22 (23:50) 0 0 0 0 0
09-10-2019 13 (16:50) 3.8 (00:00) 8.4 5 (15:30) 2.22 (14:40) 0.6 0.4 0 0.2 0
08-10-2019 20.7 (15:10) 9.2 (00:00) 15 5.56 (14:50) 2.22 (14:50) 1.6 0 0 0 1.6
07-10-2019 22.8 (15:40) 7.1 (00:00) 14.9 4.72 (15:10) 1.94 (03:30) 0 0 0 0 0
06-10-2019 18.2 (15:30) 7.1 (00:00) 12.7 4.72 (14:20) 1.94 (14:40) 0.4 0 0.4 0 0
05-10-2019 18.4 (15:10) 5.3 (00:00) 11.8 3.89 (15:40) 1.67 (01:40) 0 0 0 0 0
04-10-2019 17.2 (16:00) 8.8 (00:00) 13 4.17 (15:40) 1.67 (14:50) 1.6 1.2 0.4 0 0
03-10-2019 19.7 (16:10) 5.8 (00:00) 12.8 5.56 (15:10) 2.22 (15:10) -- 0 0 -- 0.2
02-10-2019 15.1 (16:30) 6.5 (00:00) 10.8 8.61 (02:40) 3.33 (01:30) 0 0 0 0 0
01-10-2019 16.8 (17:00) 8.8 (00:00) 12.8 8.33 (10:40) 2.78 (10:40) 1.4 0 1.4 0 0
30-09-2019 21.4 (17:00) 9.8 (00:00) 15.6 5.56 (15:00) 2.5 (15:00) 0 0 0 0 0
29-09-2019 18.4 (13:10) 7.5 (00:00) 12.9 5.83 (11:30) 2.78 (16:00) 0.8 0 0 0.2 0.6
28-09-2019 20.7 (16:10) 3.2 (00:00) 12 5 (16:30) 2.5 (14:30) 0 0 0 0 0
27-09-2019 15 (15:40) 6.2 (00:00) 10.6 4.17 (18:00) 1.67 (00:50) 2.6 0 0.8 1.8 0
26-09-2019 20.6 (15:50) 4.8 (00:00) 12.7 5 (16:30) 1.94 (16:00) 0.2 0.2 0 0 0
25-09-2019 14.8 (18:00) 7 (00:00) 10.9 4.17 (14:30) 1.67 (12:30) 0.4 0.4 0 0 0
24-09-2019 15.7 (12:50) 8.9 (00:00) 12.3 10.56 (03:30) 3.33 (04:30) 3.2 1 2.2 0 0
23-09-2019 13.8 (13:40) 6 (00:00) 9.9 6.39 (12:40) 2.78 (07:50) 2.6 0 0.4 0.8 1.4
22-09-2019 11.7 (15:30) 5.9 (00:00) 8.8 5.28 (02:10) 2.22 (03:30) 1 0 0 1 0

Gráficas

Temp. máximas Temp. mínimas Temp. medias Precipitaciones Rachas de viento máximas Velocidades máximas media en intervalos de 10 minutos

Datos horarios

Fecha y hora oficial Temperatura (ºC) Velocidad del viento (km/h) Dirección del viento Racha (km/h) Dirección de racha Precipitación (mm) Presión (hPa) Tendencia (hPa) Humedad (%)
2019-10-21 23:00:00 1.7 0 Calma 14 Este 0 -- -- 99
2019-10-21 22:00:00 2 3 Nordeste 10 Nordeste 0 -- -- 100
2019-10-21 21:00:00 2.3 3 Noroeste 5 Noroeste 0 -- -- 99
2019-10-21 20:00:00 3.1 0 Calma 13 Nordeste 0.8 -- -- 99
2019-10-21 19:00:00 3.7 6 Nordeste 10 Este 1.2 -- -- 99
2019-10-21 18:00:00 4.7 2 Sudeste 7 Nordeste 0.8 -- -- 99
2019-10-21 17:00:00 6 2 Sudeste 14 Sur 0 -- -- 97
2019-10-21 16:00:00 6.6 2 Noroeste 13 Sudeste 0 -- -- 91
2019-10-21 15:00:00 7.1 6 Sudeste 13 Sur 0 -- -- 95
2019-10-21 14:00:00 5.6 3 Noroeste 10 Sur 0 -- -- 97
2019-10-21 13:00:00 5 2 Nordeste 6 Sur 0.2 -- -- 99
2019-10-21 12:00:00 5 0 Calma 5 Sur 0 -- -- 100
2019-10-21 11:00:00 4.1 2 Sudeste 3 Sudeste 0 -- -- 100
2019-10-21 10:00:00 3.2 0 Calma 3 Sur 0 -- -- 100
2019-10-21 09:00:00 3.1 0 Calma 4 Sudoeste 0 -- -- 100
2019-10-21 08:00:00 3.1 0 Calma 2 Noroeste 0 -- -- 100
2019-10-21 07:00:00 3.2 0 Calma 3 Oeste 0 -- -- 100
2019-10-21 06:00:00 3.2 0 Calma 3 Oeste 0 -- -- 100
2019-10-21 05:00:00 3.2 0 Calma 3 Noroeste 0 -- -- 100
2019-10-21 04:00:00 3.2 0 Calma 4 Noroeste 0 -- -- 100
2019-10-21 03:00:00 3.3 0 Calma 3 Nordeste 0 -- -- 100
2019-10-21 02:00:00 3.2 0 Calma 3 Noroeste 0 -- -- 100
2019-10-21 01:00:00 3 0 Calma 6 Sudoeste 0 -- -- 100
2019-10-21 00:00:00 2.7 0 Calma 5 Oeste 0 -- -- 100
2019-10-20 23:00:00 2.6 0 Calma 4 Noroeste 0.2 -- -- 100
2019-10-20 22:00:00 2.8 0 Calma 9 Noroeste 1.6 -- -- 100
2019-10-20 21:00:00 3.3 2 Sudoeste 6 Norte 0.6 -- -- 100
2019-10-20 20:00:00 3.2 0 Calma 6 Noroeste 0.2 -- -- 100
2019-10-20 19:00:00 3.6 0 Calma 6 Oeste 0.4 -- -- 100
2019-10-20 18:00:00 3.5 6 Norte 18 Nordeste 2.2 -- -- 97
2019-10-20 17:00:00 5.3 2 Noroeste 12 Sur 0 -- -- 100
2019-10-20 16:00:00 4.6 2 Sudoeste 10 Sur 0.8 -- -- 100
2019-10-20 15:00:00 5.1 3 Nordeste 14 Oeste 0.4 -- -- 100
2019-10-20 14:00:00 4.9 4 Sudeste 16 Oeste 0.2 -- -- 100
2019-10-20 13:00:00 4.5 3 Norte 12 Noroeste 0 -- -- 100
2019-10-20 12:00:00 3.2 2 Norte 10 Oeste 1 -- -- 100
2019-10-20 11:00:00 2.7 3 Oeste 12 Oeste 0.8 -- -- 100
2019-10-20 10:00:00 2.3 0 Calma 9 Noroeste 1.6 -- -- 100
2019-10-20 09:00:00 2.2 0 Calma 13 Oeste 2.2 -- -- 100
2019-10-20 08:00:00 2.5 3 Sudoeste 13 Sudoeste 2.4 -- -- 100
2019-10-20 07:00:00 2.5 4 Sudeste 13 Sur 1.2 -- -- 100
2019-10-20 06:00:00 2.4 4 Sudeste 23 Sudeste 1.2 -- -- 100
2019-10-20 05:00:00 1.9 0 Calma 9 Nordeste 1.6 -- -- 100
2019-10-20 04:00:00 1.7 2 Sur 21 Oeste 2.2 -- -- 100
2019-10-20 03:00:00 2.6 8 Sudeste 22 Sur 1.8 -- -- 100
2019-10-20 02:00:00 3.1 5 Sur 27 Oeste 1.2 -- -- 100
2019-10-20 01:00:00 3.5 3 Sudeste 26 Oeste 1 -- -- 99
2019-10-20 00:00:00 4.3 4 Sudeste 14 Sur 1 -- -- 100
2019-10-19 23:00:00 4.4 6 Sudoeste 15 Oeste 0.2 -- -- 100
2019-10-19 22:00:00 4.4 3 Sudeste 11 Sudoeste 0.4 -- -- 100
2019-10-19 21:00:00 4.1 2 Sudeste 8 Sudoeste 0 -- -- 100
2019-10-19 20:00:00 4.1 2 Este 15 Nordeste 0 -- -- 99
2019-10-19 19:00:00 4.2 6 Este 22 Este 0 -- -- 98
2019-10-19 18:00:00 4 9 Nordeste 19 Este 0.6 -- -- 98
2019-10-19 17:00:00 4.5 3 Este 10 Este 3.6 -- -- 99
2019-10-19 16:00:00 5.4 0 Calma 7 Este 2.2 -- -- 99
2019-10-19 15:00:00 5.6 3 Este 10 Nordeste 2.2 -- -- 98
2019-10-19 14:00:00 6.3 2 Sudeste 7 Este 2.6 -- -- 99
2019-10-19 13:00:00 6.5 0 Calma 4 Nordeste 2.2 -- -- 99
2019-10-19 12:00:00 6.6 0 Calma 3 Este 2.2 -- -- 100
2019-10-19 11:00:00 6.5 3 Nordeste 6 Nordeste 1.6 -- -- 100
2019-10-19 10:00:00 6.6 0 Calma 5 Noroeste 2 -- -- 100
2019-10-19 09:00:00 6.8 0 Calma 4 Noroeste 2 -- -- 100
2019-10-19 08:00:00 7.2 0 Calma 5 Noroeste 4.2 -- -- 100
2019-10-19 07:00:00 7.4 0 Calma 6 Norte 0.6 -- -- 99
2019-10-19 06:00:00 7.4 4 Noroeste 14 Noroeste 0.4 -- -- 98
2019-10-19 05:00:00 7.5 5 Noroeste 12 Noroeste 0.4 -- -- 97
2019-10-19 04:00:00 7.5 5 Noroeste 14 Norte 0.4 -- -- 97
2019-10-19 03:00:00 7.4 6 Noroeste 16 Nordeste 0.6 -- -- 97
2019-10-19 02:00:00 7.4 4 Noroeste 11 Noroeste 0.6 -- -- 97
2019-10-19 01:00:00 7.5 4 Noroeste 15 Noroeste 1 -- -- 97
2019-10-19 00:00:00 7.6 3 Noroeste 10 Noroeste 1 -- -- 96
2019-10-18 23:00:00 7.7 3 Noroeste 8 Nordeste 0.6 -- -- 95
2019-10-18 22:00:00 8.2 4 Nordeste 14 Oeste 0.2 -- -- 90
2019-10-18 21:00:00 8.5 5 Nordeste 19 Sudeste 0 -- -- 84
2019-10-18 20:00:00 8.5 4 Norte 16 Nordeste 0 -- -- 82
2019-10-18 19:00:00 8.7 3 Noroeste 18 Noroeste 0 -- -- 80
2019-10-18 18:00:00 9.2 4 Norte 15 Sudoeste 0 -- -- 79
2019-10-18 17:00:00 9.1 2 Norte 12 Este 0 -- -- 83
2019-10-18 16:00:00 9.8 3 Norte 10 Sudoeste 0 -- -- 80
2019-10-18 15:00:00 9.3 3 Nordeste 9 Noroeste 0 -- -- 80
2019-10-18 14:00:00 8.4 2 Noroeste 14 Sur 0 -- -- 84
2019-10-18 13:00:00 8.3 2 Sudeste 7 Noroeste 0 -- -- 86
2019-10-18 12:00:00 7.5 0 Calma 10 Sudeste 0 -- -- 87
2019-10-18 11:00:00 6.7 0 Calma 3 Sur 0 -- -- 92
2019-10-18 10:00:00 6 0 Calma 5 Noroeste 0 -- -- 96
2019-10-18 09:00:00 5.7 0 Calma 4 Nordeste 0 -- -- 97
2019-10-18 08:00:00 5.9 0 Calma 4 Este 0 -- -- 97
2019-10-18 07:00:00 6.2 2 Norte 7 Noroeste 0 -- -- 97
2019-10-18 06:00:00 6.2 0 Calma 5 Noroeste 0 -- -- 97
2019-10-18 05:00:00 6.2 2 Oeste 11 Oeste 0 -- -- 99
2019-10-18 04:00:00 6.5 0 Calma 6 Noroeste 0 -- -- 100
2019-10-18 03:00:00 6.6 3 Noroeste 7 Oeste 0 -- -- 99
2019-10-18 02:00:00 7.1 2 Noroeste 6 Noroeste 0 -- -- 99
2019-10-18 01:00:00 7.5 2 Nordeste 8 Noroeste 0 -- -- 99
2019-10-18 00:00:00 7.9 3 Noroeste 10 Noroeste 0 -- -- 98
2019-10-17 23:00:00 9.1 2 Nordeste 6 Sudoeste 0 -- -- 94
2019-10-17 22:00:00 9.8 4 Noroeste 18 Noroeste 0 -- -- 84
2019-10-17 21:00:00 9.7 5 Noroeste 10 Sudoeste 0 -- -- 83
2019-10-17 20:00:00 10.4 4 Noroeste 10 Noroeste 0 -- -- 77
2019-10-17 19:00:00 11.1 4 Norte 9 Este 0 -- -- 75
2019-10-17 18:00:00 11.7 3 Norte 11 Noroeste 0 -- -- 73
2019-10-17 17:00:00 11.8 4 Nordeste 17 Oeste 0 -- -- 70
2019-10-17 16:00:00 13.3 5 Sudeste 18 Sudeste 0 -- -- 71
2019-10-17 15:00:00 12.7 7 Sudeste 18 Sudeste 0 -- -- 75
2019-10-17 14:00:00 12.3 5 Este 18 Noroeste 0 -- -- 76
2019-10-17 13:00:00 11.2 6 Este 18 Este 0 -- -- 84
2019-10-17 12:00:00 11.2 4 Este 15 Sudoeste 0 -- -- 84
2019-10-17 11:00:00 10.8 3 Norte 12 Noroeste 0.2 -- -- 92
2019-10-17 10:00:00 9.7 5 Norte 14 Oeste 0 -- -- 97
2019-10-17 09:00:00 8.8 6 Noroeste 14 Noroeste 0 -- -- 99
2019-10-17 08:00:00 8.6 0 Calma 6 Noroeste 0 -- -- 99
2019-10-17 07:00:00 8.9 0 Calma 5 Sudoeste 0 -- -- 99
2019-10-17 06:00:00 9 0 Calma 12 Noroeste 0 -- -- 98
2019-10-17 05:00:00 9.1 3 Noroeste 14 Noroeste 0.2 -- -- 98
2019-10-17 04:00:00 8.9 3 Norte 20 Norte 0 -- -- 98
2019-10-17 03:00:00 8.4 2 Oeste 14 Noroeste 0 -- -- 98
2019-10-17 02:00:00 8.9 7 Noroeste 19 Noroeste 1 -- -- 97
2019-10-17 01:00:00 9.1 5 Noroeste 14 Norte 0.8 -- -- 95
2019-10-17 00:00:00 9.3 7 Nordeste 27 Sudeste 0.6 -- -- 96
2019-10-16 23:00:00 9.2 6 Nordeste 21 Nordeste 0.4 -- -- 96
2019-10-16 22:00:00 9.1 4 Norte 21 Sudoeste 0.4 -- -- 96
2019-10-16 21:00:00 9.1 5 Noroeste 18 Sur 0.2 -- -- 96
2019-10-16 20:00:00 9.1 6 Nordeste 28 Este 0.8 -- -- 95
2019-10-16 19:00:00 9.3 5 Nordeste 28 Sur 0.6 -- -- 95
2019-10-16 18:00:00 9.4 3 Norte 24 Noroeste 0.6 -- -- 96
2019-10-16 17:00:00 9.3 6 Norte 31 Sur 0.8 -- -- 95
2019-10-16 16:00:00 9.9 4 Nordeste 21 Sudeste 0 -- -- 92
2019-10-16 15:00:00 11.7 8 Sudeste 21 Sur 0 -- -- 86
2019-10-16 14:00:00 9.7 4 Nordeste 13 Sudeste 0 -- -- 91
2019-10-16 13:00:00 8.3 6 Noroeste 30 Noroeste 0.4 -- -- 95
2019-10-16 12:00:00 7.9 9 Noroeste 31 Oeste 0 -- -- 95
2019-10-16 11:00:00 7.9 5 Norte 23 Noroeste 0 -- -- 96
2019-10-16 10:00:00 7.4 10 Nordeste 29 Sur 0 -- -- 97
2019-10-16 09:00:00 7.1 4 Nordeste 19 Noroeste 0.2 -- -- 97
2019-10-16 08:00:00 7.3 10 Oeste 27 Este 0.4 -- -- 94
2019-10-16 07:00:00 7.2 8 Noroeste 34 Sur 0.6 -- -- 95
2019-10-16 06:00:00 6.9 6 Sur 23 Sur 0.2 -- -- 97
2019-10-16 05:00:00 6.8 5 Nordeste 22 Sudeste 0.2 -- -- 97
2019-10-16 04:00:00 6.9 5 Nordeste 14 Este 0 -- -- 97
2019-10-16 03:00:00 6.9 6 Nordeste 40 Sur 0 -- -- 97
2019-10-16 02:00:00 6.8 3 Nordeste 13 Este 0 -- -- 97
2019-10-16 01:00:00 6.9 3 Norte 19 Oeste 0 -- -- 96
2019-10-16 00:00:00 6.9 6 Noroeste 21 Norte 0 -- -- 95
2019-10-15 23:00:00 6.6 7 Nordeste 19 Sur 0 -- -- 96
2019-10-15 22:00:00 6.3 5 Nordeste 17 Noroeste 0 -- -- 96
2019-10-15 21:00:00 5.8 6 Norte 24 Nordeste 0 -- -- 95
2019-10-15 20:00:00 5.5 7 Noroeste 19 Oeste 0.4 -- -- 94
2019-10-15 19:00:00 5.6 5 Noroeste 14 Norte 0.4 -- -- 95
2019-10-15 18:00:00 6.5 4 Norte 14 Este 0.8 -- -- 96
2019-10-15 17:00:00 6.6 3 Norte 16 Sudoeste 0 -- -- 95
2019-10-15 16:00:00 6.5 3 Sur 10 Noroeste 0 -- -- 93
2019-10-15 15:00:00 6.8 5 Nordeste 14 Noroeste 0 -- -- 89
2019-10-15 14:00:00 6.3 5 Noroeste 15 Norte 0 -- -- 90
2019-10-15 13:00:00 6 5 Norte 11 Noroeste 0 -- -- 90
2019-10-15 12:00:00 5.7 2 Oeste 13 Noroeste 0 -- -- 92
2019-10-15 11:00:00 5.3 2 Este 9 Oeste 0 -- -- 93
2019-10-15 10:00:00 3.8 0 Calma 5 Oeste 0 -- -- 97
2019-10-15 09:00:00 3.2 0 Calma 7 Oeste 0 -- -- 96
2019-10-15 08:00:00 3.3 5 Noroeste 24 Noroeste 0 -- -- 92
2019-10-15 07:00:00 3.3 4 Noroeste 20 Oeste 0 -- -- 96
2019-10-15 06:00:00 3 2 Noroeste 20 Noroeste 0 -- -- 96
2019-10-15 05:00:00 3.1 3 Noroeste 11 Noroeste 0 -- -- 99
2019-10-15 04:00:00 3.3 3 Norte 16 Norte 0.6 -- -- 100
2019-10-15 03:00:00 3.2 2 Norte 19 Oeste 1 -- -- 100
2019-10-15 02:00:00 3 3 Noroeste 10 Oeste 0.2 -- -- 100
2019-10-15 01:00:00 2.8 4 Noroeste 10 Oeste 0.2 -- -- 100
2019-10-15 00:00:00 2.7 4 Noroeste 12 Noroeste 0.2 -- -- 99
2019-10-14 23:00:00 2.6 3 Noroeste 18 Oeste 0.2 -- -- 99
2019-10-14 22:00:00 2.3 5 Noroeste 17 Noroeste 2.6 -- -- 98
2019-10-14 21:00:00 2.9 5 Noroeste 17 Noroeste 0.6 -- -- 97
2019-10-14 20:00:00 2.7 5 Noroeste 21 Oeste 0 -- -- 95
2019-10-14 19:00:00 2.9 4 Noroeste 22 Noroeste 1.8 -- -- 98
2019-10-14 18:00:00 3.7 3 Oeste 20 Noroeste 1 -- -- 96
2019-10-14 17:00:00 4.6 4 Oeste 13 Noroeste 0.2 -- -- 97
2019-10-14 16:00:00 3.7 5 Noroeste 39 Oeste 2.2 -- -- 93
2019-10-14 15:00:00 6.8 3 Nordeste 14 Norte 0 -- -- 94
2019-10-14 14:00:00 6.1 3 Norte 14 Este 0.6 -- -- 96
2019-10-14 13:00:00 5.7 4 Noroeste 12 Noroeste 0.8 -- -- 96
2019-10-14 12:00:00 5.9 3 Este 16 Este 0.4 -- -- 97
2019-10-14 11:00:00 5.8 0 Calma 10 Sudeste 0.2 -- -- 96
2019-10-14 10:00:00 5 2 Nordeste 14 Sur 0 -- -- 97
2019-10-14 09:00:00 4.8 6 Este 14 Sur 0.8 -- -- 95
2019-10-14 08:00:00 5.2 4 Noroeste 13 Oeste 1 -- -- 97
2019-10-14 07:00:00 5.4 4 Noroeste 13 Sur 2 -- -- 99
2019-10-14 06:00:00 5.8 3 Nordeste 12 Noroeste 1 -- -- 99
2019-10-14 05:00:00 5.9 4 Sudeste 11 Sur 2 -- -- 98
2019-10-14 04:00:00 7.5 4 Este 31 Oeste 2 -- -- 93
2019-10-14 03:00:00 9.9 5 Noroeste 20 Nordeste 0.4 -- -- 93
2019-10-14 02:00:00 11.2 10 Noroeste 28 Noroeste 0.6 -- -- 84
2019-10-14 01:00:00 11.7 13 Noroeste 37 Noroeste 0.4 -- -- 76
2019-10-14 00:00:00 12 8 Noroeste 43 Oeste 0 -- -- 75
2019-10-13 23:00:00 11.5 8 Norte 28 Oeste 0 -- -- 83
2019-10-13 22:00:00 11.3 6 Noroeste 22 Noroeste 0 -- -- 87
2019-10-13 21:00:00 11.6 11 Noroeste 27 Noroeste 0 -- -- 90
2019-10-13 20:00:00 11.7 5 Noroeste 23 Oeste 0 -- -- 91
2019-10-13 19:00:00 11.9 8 Noroeste 41 Noroeste 0 -- -- 90
2019-10-13 18:00:00 11.5 6 Noroeste 20 Noroeste 1.2 -- -- 96
2019-10-13 17:00:00 11.6 4 Noroeste 18 Sur 0.4 -- -- 94
2019-10-13 16:00:00 11.5 7 Norte 26 Sur 0.8 -- -- 94
2019-10-13 15:00:00 11.7 3 Nordeste 34 Sudeste 2 -- -- 97
2019-10-13 14:00:00 11.7 5 Sur 25 Sudeste 1.2 -- -- 95
2019-10-13 13:00:00 11.5 6 Sudeste 21 Sur 1.8 -- -- 94
2019-10-13 12:00:00 11.1 5 Sudoeste 26 Sur 1.6 -- -- 93
2019-10-13 11:00:00 10.6 9 Sudeste 28 Sudeste 2.4 -- -- 92
2019-10-13 10:00:00 10 9 Sudeste 31 Sudeste 0.8 -- -- 90
2019-10-13 09:00:00 10 6 Sudeste 23 Sudoeste 0.8 -- -- 88
2019-10-13 08:00:00 10.9 9 Este 37 Sur 0 -- -- 78
2019-10-13 07:00:00 10.7 8 Nordeste 39 Sur 0 -- -- 76
2019-10-13 06:00:00 11 8 Sur 42 Sur 0 -- -- 75
2019-10-13 05:00:00 12.3 11 Norte 34 Sudoeste 0 -- -- 65
2019-10-13 04:00:00 12.5 10 Noroeste 24 Oeste 0 -- -- 63
2019-10-13 03:00:00 11.5 10 Este 26 Nordeste 0 -- -- 79
2019-10-13 02:00:00 11.9 6 Este 37 Sur 0 -- -- 80
2019-10-13 01:00:00 12.7 12 Sudeste 48 Sudoeste 0 -- -- 80
2019-10-13 00:00:00 13.9 7 Este 49 Sur 0 -- -- 77
2019-10-12 23:00:00 15.1 10 Sudeste 33 Sudeste 0 -- -- 74
2019-10-12 22:00:00 16.1 7 Este 29 Sur 0 -- -- 68
2019-10-12 21:00:00 17.2 5 Este 33 Oeste 0 -- -- 59
2019-10-12 20:00:00 18.1 11 Norte 35 Norte 0 -- -- 52
2019-10-12 19:00:00 18.2 9 Norte 23 Norte 0 -- -- 52
2019-10-12 18:00:00 18.8 14 Nordeste 31 Nordeste 0 -- -- 49
2019-10-12 17:00:00 20 10 Nordeste 27 Sur 0 -- -- 46
2019-10-12 16:00:00 20.1 10 Nordeste 28 Sur 0 -- -- 49
2019-10-12 15:00:00 19.5 8 Sudeste 26 Sur 0 -- -- 51
2019-10-12 14:00:00 19.1 10 Norte 34 Sudeste 0 -- -- 51
2019-10-12 13:00:00 18.4 8 Este 28 Sudeste 0 -- -- 55
2019-10-12 12:00:00 17.8 9 Sudeste 40 Sudeste 0 -- -- 55
2019-10-12 11:00:00 16.4 8 Sudeste 26 Sur 0 -- -- 58
2019-10-12 10:00:00 14.5 5 Sudeste 17 Sudeste 0 -- -- 62
2019-10-12 09:00:00 12.6 10 Sudeste 33 Sudeste 0 -- -- 66
2019-10-12 08:00:00 11.4 3 Noroeste 19 Este 0 -- -- 79
2019-10-12 07:00:00 11.9 3 Norte 13 Noroeste 0 -- -- 79
2019-10-12 06:00:00 13.2 3 Norte 15 Sudeste 0 -- -- 74
2019-10-12 05:00:00 14.2 4 Nordeste 23 Este 0 -- -- 69
2019-10-12 04:00:00 14.7 8 Este 17 Sudoeste 0 -- -- 67
2019-10-12 03:00:00 12.3 4 Noroeste 12 Este 0 -- -- 81
2019-10-12 02:00:00 13 4 Noroeste 22 Sudeste 0 -- -- 78
2019-10-12 01:00:00 15.2 7 Sudeste 21 Sudeste 0 -- -- 69
2019-10-12 00:00:00 14 4 Este 10 Oeste 0 -- -- 74
2019-10-11 23:00:00 13.5 3 Norte 8 Nordeste 0 -- -- 77
2019-10-11 22:00:00 13.1 4 Noroeste 10 Noroeste 0 -- -- 77
2019-10-11 21:00:00 13.6 3 Noroeste 7 Norte 0 -- -- 75
2019-10-11 20:00:00 15.7 3 Norte 12 Este 0 -- -- 68
2019-10-11 19:00:00 18.8 5 Nordeste 21 Sudeste 0 -- -- 55
2019-10-11 18:00:00 19.6 6 Este 27 Sur 0 -- -- 51
2019-10-11 17:00:00 20.8 7 Nordeste 23 Nordeste 0 -- -- 48
2019-10-11 16:00:00 20.9 10 Norte 26 Noroeste 0 -- -- 47
2019-10-11 15:00:00 20.5 9 Nordeste 22 Sudeste 0 -- -- 48
2019-10-11 14:00:00 20.3 6 Nordeste 23 Sur 0 -- -- 49
2019-10-11 13:00:00 19 9 Sudeste 24 Sur 0 -- -- 44
2019-10-11 12:00:00 18.8 6 Sudeste 15 Sudeste 0 -- -- 45
2019-10-11 11:00:00 16.8 4 Sur 14 Sudoeste 0 -- -- 53
2019-10-11 10:00:00 12.7 3 Noroeste 10 Noroeste 0 -- -- 71
2019-10-11 09:00:00 9.2 3 Noroeste 8 Oeste 0 -- -- 79
2019-10-11 08:00:00 8.9 4 Noroeste 10 Noroeste 0 -- -- 79
2019-10-11 07:00:00 9.1 6 Noroeste 10 Noroeste 0 -- -- 78
2019-10-11 06:00:00 9.6 5 Noroeste 12 Oeste 0 -- -- 74
2019-10-11 05:00:00 10.8 5 Noroeste 18 Sudeste 0 -- -- 68
2019-10-11 04:00:00 9.7 3 Norte 11 Norte 0 -- -- 70
2019-10-11 03:00:00 11 8 Este 21 Nordeste 0 -- -- 63
2019-10-11 02:00:00 10.1 2 Sur 18 Nordeste 0 -- -- 70
2019-10-11 01:00:00 11.4 5 Nordeste 20 Este 0 -- -- 66
2019-10-11 00:00:00 11.1 7 Nordeste 15 Nordeste 0 -- -- 64
2019-10-10 23:00:00 10.3 3 Norte 13 Este 0 -- -- 71
2019-10-10 22:00:00 9.7 3 Noroeste 9 Noroeste 0 -- -- 76
2019-10-10 21:00:00 10.1 5 Noroeste 9 Oeste 0 -- -- 76
2019-10-10 20:00:00 11.1 4 Noroeste 8 Noroeste 0 -- -- 82
2019-10-10 19:00:00 14.7 0 Calma 8 Sudoeste 0 -- -- 70
2019-10-10 18:00:00 16.8 3 Oeste 11 Oeste 0 -- -- 57
2019-10-10 17:00:00 18.8 4 Oeste 12 Oeste 0 -- -- 52
2019-10-10 16:00:00 19.3 4 Noroeste 14 Sur 0 -- -- 46
2019-10-10 15:00:00 18.7 3 Nordeste 13 Sur 0 -- -- 47
2019-10-10 14:00:00 17.7 4 Sur 14 Sur 0 -- -- 48
2019-10-10 13:00:00 16.3 4 Sur 14 Sur 0 -- -- 47
2019-10-10 12:00:00 13.3 3 Sudeste 9 Sudeste 0 -- -- 58
2019-10-10 11:00:00 11.8 3 Sudeste 7 Sudeste 0 -- -- 63
2019-10-10 10:00:00 7.6 0 Calma 4 Noroeste 0 -- -- 76
2019-10-10 09:00:00 4.1 5 Noroeste 9 Noroeste 0 -- -- 87
2019-10-10 08:00:00 3.2 5 Noroeste 10 Noroeste 0 -- -- 88
2019-10-10 07:00:00 3.1 3 Noroeste 8 Noroeste 0 -- -- 87
2019-10-10 06:00:00 2.6 3 Noroeste 7 Oeste 0 -- -- 91
2019-10-10 05:00:00 2.8 5 Noroeste 7 Noroeste 0 -- -- 94
2019-10-10 04:00:00 3.1 4 Noroeste 8 Noroeste 0 -- -- 95
2019-10-10 03:00:00 3.1 3 Noroeste 7 Noroeste 0 -- -- 98
2019-10-10 02:00:00 4 0 Calma 5 Noroeste 0 -- -- 99
2019-10-10 01:00:00 3.5 0 Calma 6 Oeste 0 -- -- 98
2019-10-10 00:00:00 3.8 3 Oeste 6 Noroeste 0 -- -- 97
2019-10-09 23:00:00 4.1 2 Noroeste 6 Noroeste 0 -- -- 96
2019-10-09 22:00:00 4.8 4 Oeste 6 Norte 0 -- -- 94
2019-10-09 21:00:00 6.5 3 Oeste 13 Noroeste 0 -- -- 89
2019-10-09 20:00:00 8.4 4 Oeste 11 Noroeste 0 -- -- 82
2019-10-09 19:00:00 10.2 2 Oeste 12 Noroeste 0 -- -- 75
2019-10-09 18:00:00 11.6 4 Noroeste 14 Oeste 0 -- -- 69
2019-10-09 17:00:00 13 3 Sudoeste 15 Sur 0 -- -- 65
2019-10-09 16:00:00 12.9 4 Oeste 18 Sur 0 -- -- 67
2019-10-09 15:00:00 12.1 5 Sur 18 Sur 0 -- -- 74
2019-10-09 14:00:00 10.6 4 Noroeste 15 Sudeste 0 -- -- 77
2019-10-09 13:00:00 9.9 4 Sudeste 13 Sudeste 0.2 -- -- 77
2019-10-09 12:00:00 8.3 4 Sudeste 9 Sur 0 -- -- 90
2019-10-09 11:00:00 7.2 3 Sudeste 10 Sur 0 -- -- 97
2019-10-09 10:00:00 5.5 3 Sudoeste 8 Sur 0 -- -- 100
2019-10-09 09:00:00 3.9 3 Noroeste 5 Noroeste 0 -- -- 100
2019-10-09 08:00:00 4.4 0 Calma 8 Sudoeste 0 -- -- 100
2019-10-09 07:00:00 4.3 2 Noroeste 8 Noroeste 0 -- -- 100
2019-10-09 06:00:00 5.3 3 Oeste 9 Oeste 0 -- -- 99
2019-10-09 05:00:00 6.6 0 Calma 6 Nordeste 0 -- -- 100
2019-10-09 04:00:00 7 2 Norte 8 Oeste 0.2 -- -- 100
2019-10-09 03:00:00 7.6 3 Noroeste 9 Noroeste 0 -- -- 100
2019-10-09 02:00:00 8.3 2 Nordeste 6 Noroeste 0 -- -- 99
2019-10-09 01:00:00 9 0 Calma 4 Noroeste 0.2 -- -- 99
2019-10-09 00:00:00 9.2 0 Calma 8 Noroeste 0.2 -- -- 99
2019-10-08 23:00:00 9.5 0 Calma 5 Noroeste 0.2 -- -- 99
2019-10-08 22:00:00 10.2 0 Calma 5 Norte 0.8 -- -- 98
2019-10-08 21:00:00 10.9 0 Calma 7 Noroeste 0.4 -- -- 98
2019-10-08 20:00:00 12.1 3 Noroeste 7 Oeste 0 -- -- 97
2019-10-08 19:00:00 13.4 3 Nordeste 13 Noroeste 0 -- -- 97
2019-10-08 18:00:00 14.9 3 Nordeste 7 Nordeste 0 -- -- 93
2019-10-08 17:00:00 16.8 3 Norte 11 Sudeste 0 -- -- 88
2019-10-08 16:00:00 18.4 3 Este 12 Sudeste 0 -- -- 78
2019-10-08 15:00:00 20.3 4 Norte 20 Sur 0 -- -- 69
2019-10-08 14:00:00 19.4 5 Sudeste 13 Sur 0 -- -- 69
2019-10-08 13:00:00 18 6 Sur 16 Este 0 -- -- 72
2019-10-08 12:00:00 16.9 3 Norte 11 Sudoeste 0 -- -- 71
2019-10-08 11:00:00 15 4 Sudeste 12 Sur 0 -- -- 80
2019-10-08 10:00:00 12.8 4 Oeste 7 Noroeste 0 -- -- 80
2019-10-08 09:00:00 10.1 3 Noroeste 8 Oeste 0 -- -- 91
2019-10-08 08:00:00 10.2 4 Noroeste 8 Noroeste 0 -- -- 91
2019-10-08 07:00:00 10.5 5 Noroeste 9 Noroeste 0 -- -- 91
2019-10-08 06:00:00 10.6 4 Noroeste 8 Noroeste 0 -- -- 89
2019-10-08 05:00:00 10.4 4 Noroeste 9 Noroeste 0 -- -- 86
2019-10-08 04:00:00 9.4 2 Noroeste 5 Noroeste 0 -- -- 87
2019-10-08 03:00:00 10.3 2 Noroeste 11 Noroeste 0 -- -- 82
2019-10-08 02:00:00 10.4 4 Noroeste 5 Noroeste 0 -- -- 82
2019-10-08 01:00:00 11 4 Noroeste 9 Noroeste 0 -- -- 78
2019-10-08 00:00:00 11.6 5 Oeste 9 Noroeste 0 -- -- 76
2019-10-07 23:00:00 10.9 4 Noroeste 8 Noroeste 0 -- -- 75
2019-10-07 22:00:00 11.1 5 Noroeste 8 Noroeste 0 -- -- 72
2019-10-07 21:00:00 11.9 5 Noroeste 7 Oeste 0 -- -- 70
2019-10-07 20:00:00 13.7 4 Noroeste 6 Oeste 0 -- -- 69
2019-10-07 19:00:00 17.5 3 Noroeste 7 Nordeste 0 -- -- 57
2019-10-07 18:00:00 20.5 4 Nordeste 12 Sudeste 0 -- -- 46
2019-10-07 17:00:00 22.2 4 Este 16 Sur 0 -- -- 42
2019-10-07 16:00:00 22.7 4 Nordeste 17 Sur 0 -- -- 39
2019-10-07 15:00:00 22.1 5 Sur 16 Sudeste 0 -- -- 38
2019-10-07 14:00:00 20.3 3 Norte 10 Norte 0 -- -- 23
2019-10-07 13:00:00 19.2 3 Sudoeste 11 Sur 0 -- -- 22
2019-10-07 12:00:00 17.3 3 Noroeste 9 Noroeste 0 -- -- 25
2019-10-07 11:00:00 15.4 3 Noroeste 8 Oeste 0 -- -- 22
2019-10-07 10:00:00 11.4 3 Noroeste 6 Noroeste 0 -- -- 63
2019-10-07 09:00:00 7.5 7 Noroeste 9 Noroeste 0 -- -- 50
2019-10-07 08:00:00 7.2 6 Noroeste 8 Noroeste 0 -- -- 48
2019-10-07 07:00:00 7.3 7 Noroeste 8 Noroeste 0 -- -- 49
2019-10-07 06:00:00 7.6 6 Noroeste 8 Noroeste 0 -- -- 47
2019-10-07 05:00:00 7.4 4 Noroeste 8 Noroeste 0 -- -- 51
2019-10-07 04:00:00 7.8 5 Noroeste 9 Noroeste 0 -- -- 52
2019-10-07 03:00:00 8 5 Noroeste 8 Noroeste 0 -- -- 57
2019-10-07 02:00:00 7.5 6 Noroeste 8 Oeste 0 -- -- 65
2019-10-07 01:00:00 7.6 5 Noroeste 8 Noroeste 0 -- -- 81
2019-10-07 00:00:00 8.3 3 Noroeste 8 Noroeste 0 -- -- 92
2019-10-06 23:00:00 9 4 Noroeste 6 Noroeste 0 -- -- 95
2019-10-06 22:00:00 9.8 3 Noroeste 6 Oeste 0 -- -- 92
2019-10-06 21:00:00 10.9 4 Oeste 8 Oeste 0 -- -- 87
2019-10-06 20:00:00 12 4 Noroeste 6 Oeste 0 -- -- 80
2019-10-06 19:00:00 15 2 Noroeste 8 Sudoeste 0 -- -- 67
2019-10-06 18:00:00 16.7 4 Sudeste 14 Sur 0 -- -- 62
2019-10-06 17:00:00 17.5 4 Sur 13 Sur 0 -- -- 57
2019-10-06 16:00:00 17.9 3 Norte 15 Sur 0 -- -- 62
2019-10-06 15:00:00 17.8 3 Nordeste 17 Sur 0 -- -- 69
2019-10-06 14:00:00 16 4 Norte 12 Oeste 0 -- -- 70
2019-10-06 13:00:00 15.1 4 Sur 12 Sur 0 -- -- 75
2019-10-06 12:00:00 13.1 4 Sudeste 11 Sur 0 -- -- 91
2019-10-06 11:00:00 11.3 2 Sudeste 6 Sudeste 0 -- -- 99
2019-10-06 10:00:00 10.7 0 Calma 4 Sudeste 0 -- -- 99
2019-10-06 09:00:00 9.9 0 Calma 4 Noroeste 0.2 -- -- 99
2019-10-06 08:00:00 10 2 Noroeste 6 Oeste 0.2 -- -- 98
2019-10-06 07:00:00 10 4 Noroeste 8 Noroeste 0 -- -- 98
2019-10-06 06:00:00 8.9 0 Calma 5 Noroeste 0 -- -- 100
2019-10-06 05:00:00 7.8 4 Noroeste 8 Noroeste 0 -- -- 97
2019-10-06 04:00:00 8.9 0 Calma 8 Noroeste 0 -- -- 99
2019-10-06 03:00:00 7.7 2 Noroeste 6 Noroeste 0 -- -- 99
2019-10-06 02:00:00 7.1 4 Noroeste 6 Noroeste 0 -- -- 98
2019-10-06 01:00:00 7.4 3 Noroeste 6 Noroeste 0 -- -- 98
2019-10-06 00:00:00 7.7 4 Noroeste 6 Noroeste 0 -- -- 97
2019-10-05 23:00:00 8.7 4 Noroeste 7 Oeste 0 -- -- 94
2019-10-05 22:00:00 10.4 3 Nordeste 10 Oeste 0 -- -- 95
2019-10-05 21:00:00 10.9 4 Oeste 8 Noroeste 0 -- -- 93
2019-10-05 20:00:00 12.7 0 Calma 5 Noroeste 0 -- -- 87
2019-10-05 19:00:00 14.2 3 Nordeste 9 Nordeste 0 -- -- 82
2019-10-05 18:00:00 15.9 4 Nordeste 11 Este 0 -- -- 76
2019-10-05 17:00:00 17.7 3 Nordeste 13 Noroeste 0 -- -- 68
2019-10-05 16:00:00 18.1 3 Nordeste 14 Sur 0 -- -- 64
2019-10-05 15:00:00 18 4 Sudoeste 10 Sur 0 -- -- 71
2019-10-05 14:00:00 14.9 5 Noroeste 14 Sudoeste 0 -- -- 81
2019-10-05 13:00:00 14.4 5 Oeste 12 Sur 0 -- -- 79
2019-10-05 12:00:00 15.4 5 Sur 9 Sudeste 0 -- -- 75
2019-10-05 11:00:00 14.7 2 Sudeste 8 Sur 0 -- -- 73
2019-10-05 10:00:00 13.1 4 Este 10 Nordeste 0 -- -- 81
2019-10-05 09:00:00 8.3 3 Oeste 8 Noroeste 0 -- -- 97
2019-10-05 08:00:00 7.6 5 Noroeste 12 Nordeste 0 -- -- 95
2019-10-05 07:00:00 8.2 6 Nordeste 13 Norte 0 -- -- 90
2019-10-05 06:00:00 5.8 4 Noroeste 9 Noroeste 0 -- -- 95
2019-10-05 05:00:00 5.5 4 Noroeste 7 Noroeste 0 -- -- 94
2019-10-05 04:00:00 6.2 5 Noroeste 8 Noroeste 0 -- -- 95
2019-10-05 03:00:00 7.1 3 Noroeste 7 Noroeste 0 -- -- 97
2019-10-05 02:00:00 7.4 5 Noroeste 9 Noroeste 0 -- -- 97
2019-10-05 01:00:00 8.5 6 Noroeste 8 Noroeste 0 -- -- 97
2019-10-05 00:00:00 8.8 3 Noroeste 7 Noroeste 0 -- -- 97
2019-10-04 23:00:00 9.4 3 Noroeste 5 Norte 0 -- -- 95
2019-10-04 22:00:00 10.8 0 Calma 5 Noroeste 0 -- -- 95
2019-10-04 21:00:00 12.4 0 Calma 5 Noroeste 0 -- -- 90
2019-10-04 20:00:00 13.1 0 Calma 5 Nordeste 0 -- -- 88
2019-10-04 19:00:00 13.9 3 Nordeste 8 Sudeste 0 -- -- 85
2019-10-04 18:00:00 14.7 3 Este 13 Sudeste 0 -- -- 84
2019-10-04 17:00:00 15.8 3 Nordeste 12 Sudoeste 0 -- -- 80
2019-10-04 16:00:00 17.2 4 Nordeste 15 Sur 0 -- -- 75
2019-10-04 15:00:00 15.8 5 Noroeste 14 Noroeste 0 -- -- 84
2019-10-04 14:00:00 15.5 6 Oeste 13 Oeste 0 -- -- 85
2019-10-04 13:00:00 14 3 Oeste 15 Sur 0 -- -- 90
2019-10-04 12:00:00 13.3 3 Este 9 Sur 0 -- -- 99
2019-10-04 11:00:00 12.9 2 Sudeste 9 Sur 0.2 -- -- 98
2019-10-04 10:00:00 12.2 0 Calma 6 Noroeste 0.2 -- -- 97
2019-10-04 09:00:00 12.1 0 Calma 3 Sudeste 0 -- -- 99
2019-10-04 08:00:00 12.2 0 Calma 4 Oeste 0 -- -- 98
2019-10-04 07:00:00 12.2 0 Calma 5 Noroeste 0 -- -- 99
2019-10-04 06:00:00 11.8 2 Noroeste 4 Oeste 0 -- -- 99
2019-10-04 05:00:00 12.1 0 Calma 5 Noroeste 0 -- -- 99
2019-10-04 04:00:00 11.9 4 Oeste 6 Oeste 0 -- -- 96
2019-10-04 03:00:00 13.2 0 Calma 3 Noroeste 0.4 -- -- 96
2019-10-04 02:00:00 13.3 2 Noroeste 4 Noroeste 0.6 -- -- 97
2019-10-04 01:00:00 13.5 0 Calma 4 Noroeste 0.2 -- -- 96
2019-10-04 00:00:00 13.5 2 Oeste 4 Oeste 0 -- -- 95
2019-10-03 23:00:00 13.5 0 Calma 6 Sudeste 0 -- -- 94
2019-10-03 22:00:00 13.8 2 Noroeste 4 Noroeste 0.2 -- -- 93
2019-10-03 21:00:00 14.3 2 Noroeste 5 Noroeste 0 -- -- 87
2019-10-03 20:00:00 14.6 0 Calma 4 Noroeste 0 -- -- 82
2019-10-03 19:00:00 15.4 3 Nordeste 12 Nordeste 0 -- -- 76
2019-10-03 18:00:00 17.5 3 Este 12 Este 0 -- -- 69
2019-10-03 17:00:00 19.3 5 Nordeste 11 Sudoeste 0 -- -- 57
2019-10-03 16:00:00 19.6 4 Este 20 Sur 0 -- -- 48
2019-10-03 15:00:00 19.4 7 Sudeste 19 Sur 0 -- -- 43
2019-10-03 14:00:00 17.8 4 Sudeste 15 Sudeste 0 -- -- 36
2019-10-03 13:00:00 16.5 0 Calma 9 Norte -- -- -- 51
2019-10-03 12:00:00 15 4 Noroeste 12 Oeste 0 -- -- 54
2019-10-03 11:00:00 14.3 3 Oeste 9 Sudoeste 0 -- -- 62
2019-10-03 10:00:00 9.7 0 Calma 3 Noroeste 0 -- -- 87
2019-10-03 09:00:00 6 2 Noroeste 8 Noroeste 0 -- -- 94
2019-10-03 08:00:00 6.2 5 Noroeste 8 Noroeste 0 -- -- 92
2019-10-03 07:00:00 6.4 4 Noroeste 7 Noroeste 0 -- -- 93
2019-10-03 06:00:00 7 4 Noroeste 8 Noroeste 0 -- -- 91
2019-10-03 05:00:00 7.3 5 Oeste 9 Noroeste 0 -- -- 91
2019-10-03 04:00:00 7.4 4 Noroeste 8 Noroeste 0 -- -- 91
2019-10-03 03:00:00 7.6 5 Noroeste 10 Noroeste 0 -- -- 93
2019-10-03 02:00:00 7.7 5 Noroeste 8 Noroeste 0 -- -- 93
2019-10-03 01:00:00 7.4 3 Oeste 7 Noroeste 0 -- -- 95
2019-10-03 00:00:00 7.3 3 Noroeste 8 Oeste 0 -- -- 97
2019-10-02 23:00:00 6.6 3 Noroeste 5 Noroeste 0 -- -- 97
2019-10-02 22:00:00 6.8 3 Noroeste 6 Noroeste 0 -- -- 95
2019-10-02 21:00:00 7.8 3 Noroeste 5 Noroeste 0 -- -- 93
2019-10-02 20:00:00 9.7 4 Noroeste 5 Noroeste 0 -- -- 87
2019-10-02 19:00:00 12.5 3 Nordeste 8 Oeste 0 -- -- 74
2019-10-02 18:00:00 14.2 3 Norte 13 Sur 0 -- -- 67
2019-10-02 17:00:00 14.8 3 Sudeste 14 Sur 0 -- -- 66
2019-10-02 16:00:00 14.9 5 Sudeste 22 Nordeste 0 -- -- 67
2019-10-02 15:00:00 13 5 Noroeste 22 Norte 0 -- -- 69
2019-10-02 14:00:00 12.7 8 Sudoeste 21 Sudeste 0 -- -- 67
2019-10-02 13:00:00 10.2 4 Oeste 13 Oeste 0 -- -- 82
2019-10-02 12:00:00 9.2 4 Oeste 12 Sudoeste 0 -- -- 82
2019-10-02 11:00:00 8 4 Sudoeste 12 Oeste 0 -- -- 97
2019-10-02 10:00:00 7.5 2 Este 12 Norte 0 -- -- 98
2019-10-02 09:00:00 7.1 2 Noroeste 10 Sur 0 -- -- 98
2019-10-02 08:00:00 7 2 Sudoeste 13 Oeste 0 -- -- 96
2019-10-02 07:00:00 7 2 Sur 10 Oeste 0 -- -- 96
2019-10-02 06:00:00 7.3 3 Sur 9 Noroeste 0 -- -- 90
2019-10-02 05:00:00 7.4 2 Sudeste 13 Sudoeste 0 -- -- 90
2019-10-02 04:00:00 7.4 2 Este 16 Sudoeste 0 -- -- 88
2019-10-02 03:00:00 7.6 4 Oeste 31 Oeste 0 -- -- 83
2019-10-02 02:00:00 8.2 5 Oeste 25 Noroeste 0 -- -- 82
2019-10-02 01:00:00 8.8 3 Noroeste 12 Noroeste 0 -- -- 83
2019-10-02 00:00:00 9 3 Norte 13 Noroeste 0 -- -- 87
2019-10-01 23:00:00 9.4 3 Noroeste 11 Oeste 0 -- -- 85
2019-10-01 22:00:00 10.1 6 Noroeste 18 Oeste 0 -- -- 78
2019-10-01 21:00:00 11 7 Noroeste 22 Noroeste 0 -- -- 74
2019-10-01 20:00:00 12 3 Noroeste 15 Noroeste 0 -- -- 72
2019-10-01 19:00:00 13.6 4 Norte 19 Sudoeste 0 -- -- 68
2019-10-01 18:00:00 15.3 6 Noroeste 24 Noroeste 0 -- -- 62
2019-10-01 17:00:00 16.8 5 Nordeste 17 Noroeste 0 -- -- 63
2019-10-01 16:00:00 15.7 6 Norte 26 Noroeste 0 -- -- 59
2019-10-01 15:00:00 15.5 6 Noroeste 23 Noroeste 0 -- -- 65
2019-10-01 14:00:00 15.1 7 Nordeste 22 Noroeste 0 -- -- 69
2019-10-01 13:00:00 14.1 5 Norte 25 Noroeste 0 -- -- 73
2019-10-01 12:00:00 12.7 5 Noroeste 23 Noroeste 0 -- -- 84
2019-10-01 11:00:00 11 9 Noroeste 30 Oeste 0.2 -- -- 90
2019-10-01 10:00:00 10.5 3 Norte 10 Norte 0.6 -- -- 99
2019-10-01 09:00:00 10.4 0 Calma 4 Nordeste 0.4 -- -- 97
2019-10-01 08:00:00 10.3 0 Calma 4 Oeste 0.2 -- -- 96
2019-10-01 07:00:00 9.6 0 Calma 6 Noroeste 0 -- -- 98
2019-10-01 06:00:00 9 3 Noroeste 5 Noroeste 0 -- -- 95
2019-10-01 05:00:00 10.8 0 Calma 10 Oeste 0 -- -- 94
2019-10-01 04:00:00 11.4 0 Calma 11 Noroeste 0 -- -- 96
2019-10-01 03:00:00 11 3 Noroeste 8 Noroeste 0 -- -- 92
2019-10-01 02:00:00 11 3 Noroeste 6 Oeste 0 -- -- 86
2019-10-01 01:00:00 11.3 3 Oeste 6 Sudoeste 0 -- -- 83
2019-10-01 00:00:00 11.4 3 Noroeste 10 Noroeste 0 -- -- 92
2019-09-30 23:00:00 11.7 3 Noroeste 8 Noroeste 0 -- -- 94
2019-09-30 22:00:00 12.2 5 Noroeste 6 Noroeste 0 -- -- 93
2019-09-30 21:00:00 12.9 5 Noroeste 6 Noroeste 0 -- -- 90
2019-09-30 20:00:00 15.8 3 Norte 12 Noroeste 0 -- -- 79
2019-09-30 19:00:00 19.1 3 Norte 14 Sudeste 0 -- -- 65
2019-09-30 18:00:00 20.9 3 Sudeste 13 Sur 0 -- -- 56
2019-09-30 17:00:00 21.4 4 Este 14 Este 0 -- -- 57
2019-09-30 16:00:00 20.9 5 Sur 20 Sudeste 0 -- -- 60
2019-09-30 15:00:00 20.6 9 Sudeste 20 Sudeste 0 -- -- 63
2019-09-30 14:00:00 19.1 7 Sudeste 16 Sur 0 -- -- 74
2019-09-30 13:00:00 18.2 6 Sudeste 14 Sudeste 0 -- -- 77
2019-09-30 12:00:00 18.2 4 Sudeste 10 Sudeste 0 -- -- 74
2019-09-30 11:00:00 16.7 4 Sudeste 9 Sur 0 -- -- 82
2019-09-30 10:00:00 14 0 Calma 5 Sur 0 -- -- 97
2019-09-30 09:00:00 10.5 0 Calma 6 Noroeste 0 -- -- 100
2019-09-30 08:00:00 9.9 4 Noroeste 7 Noroeste 0 -- -- 99
2019-09-30 07:00:00 10.2 5 Noroeste 8 Noroeste 0 -- -- 99
2019-09-30 06:00:00 11 5 Norte 9 Nordeste 0 -- -- 99
2019-09-30 05:00:00 11.6 0 Calma 5 Noroeste 0 -- -- 99
2019-09-30 04:00:00 11.6 4 Noroeste 6 Noroeste 0 -- -- 99
2019-09-30 03:00:00 11.2 4 Noroeste 6 Noroeste 0 -- -- 99
2019-09-30 02:00:00 10.9 3 Noroeste 9 Noroeste 0 -- -- 97
2019-09-30 01:00:00 12.2 3 Norte 12 Noroeste 0 -- -- 95
2019-09-30 00:00:00 12.1 4 Noroeste 6 Oeste 0 -- -- 97
2019-09-29 23:00:00 12.5 3 Noroeste 6 Noroeste 0 -- -- 97
2019-09-29 22:00:00 12.5 0 Calma 11 Noroeste 0 -- -- 95
2019-09-29 21:00:00 13.4 3 Noroeste 8 Noroeste 0 -- -- 88
2019-09-29 20:00:00 14.5 2 Nordeste 9 Este 0.2 -- -- 96
2019-09-29 19:00:00 15.3 2 Noroeste 6 Oeste 0.4 -- -- 95
2019-09-29 18:00:00 15.6 2 Noroeste 6 Sur 0.2 -- -- 93
2019-09-29 17:00:00 16 2 Sur 16 Noroeste 0 -- -- 86
2019-09-29 16:00:00 15.8 10 Noroeste 18 Noroeste 0 -- -- 85
2019-09-29 15:00:00 17.3 8 Noroeste 19 Noroeste 0 -- -- 74
2019-09-29 14:00:00 16.9 6 Noroeste 18 Oeste 0 -- -- 70
2019-09-29 13:00:00 18.1 6 Noroeste 19 Noroeste 0 -- -- 62
2019-09-29 12:00:00 17 5 Noroeste 21 Noroeste 0 -- -- 59
2019-09-29 11:00:00 16.1 4 Oeste 14 Oeste 0 -- -- 54
2019-09-29 10:00:00 13.4 2 Sur 8 Noroeste 0 -- -- 62
2019-09-29 09:00:00 8.6 2 Noroeste 6 Noroeste 0 -- -- 73
2019-09-29 08:00:00 7.8 3 Norte 8 Noroeste 0 -- -- 70
2019-09-29 07:00:00 7.7 4 Noroeste 6 Noroeste 0 -- -- 64
2019-09-29 06:00:00 7.9 4 Noroeste 6 Noroeste 0 -- -- 61
2019-09-29 05:00:00 7.8 3 Noroeste 6 Oeste 0 -- -- 58
2019-09-29 04:00:00 8.1 3 Noroeste 8 Noroeste 0 -- -- 64
2019-09-29 03:00:00 9 4 Noroeste 8 Noroeste 0 -- -- 66
2019-09-29 02:00:00 10 3 Noroeste 9 Noroeste 0 -- -- 67
2019-09-29 01:00:00 9.2 2 Noroeste 10 Noroeste 0 -- -- 67
2019-09-29 00:00:00 9.5 5 Noroeste 10 Noroeste 0 -- -- 63
2019-09-28 23:00:00 9.6 6 Noroeste 10 Noroeste 0 -- -- 60
2019-09-28 22:00:00 10.4 6 Noroeste 9 Noroeste 0 -- -- 60
2019-09-28 21:00:00 12.3 4 Noroeste 14 Oeste 0 -- -- 57
2019-09-28 20:00:00 12.8 5 Noroeste 9 Noroeste 0 -- -- 64
2019-09-28 19:00:00 15.9 0 Calma 12 Sudoeste 0 -- -- 57
2019-09-28 18:00:00 19.8 3 Sudeste 13 Sudeste 0 -- -- 35
2019-09-28 17:00:00 20.3 5 Sudeste 18 Sur 0 -- -- 33
2019-09-28 16:00:00 20.5 6 Sudeste 17 Sur 0 -- -- 26
2019-09-28 15:00:00 20 5 Sudeste 15 Sudeste 0 -- -- 29
2019-09-28 14:00:00 18.9 5 Sudeste 15 Sudeste 0 -- -- 34
2019-09-28 13:00:00 18.2 4 Sudeste 9 Sudeste 0 -- -- 35
2019-09-28 12:00:00 16.7 4 Sudeste 8 Sudeste 0 -- -- 48
2019-09-28 11:00:00 14.1 2 Sur 4 Sur 0 -- -- 59
2019-09-28 10:00:00 9 0 Calma 7 Noroeste 0 -- -- 81
2019-09-28 09:00:00 4.9 4 Oeste 8 Noroeste 0 -- -- 72
2019-09-28 08:00:00 3.4 7 Noroeste 10 Noroeste 0 -- -- 80
2019-09-28 07:00:00 3.3 6 Noroeste 8 Oeste 0 -- -- 86
2019-09-28 06:00:00 3.6 4 Noroeste 7 Noroeste 0 -- -- 95
2019-09-28 05:00:00 4.4 3 Noroeste 8 Noroeste 0 -- -- 97
2019-09-28 04:00:00 5.7 3 Oeste 6 Oeste 0 -- -- 99
2019-09-28 03:00:00 6.6 3 Noroeste 5 Noroeste 0 -- -- 97
2019-09-28 02:00:00 7.6 0 Calma 6 Oeste 0 -- -- 98
2019-09-28 01:00:00 8.6 3 Noroeste 5 Noroeste 0 -- -- 98
2019-09-28 00:00:00 8.8 2 Noroeste 5 Noroeste 0 -- -- 99
2019-09-27 23:00:00 8.2 2 Noroeste 5 Noroeste 0 -- -- 98
2019-09-27 22:00:00 9.3 3 Noroeste 8 Noroeste 0 -- -- 96
2019-09-27 21:00:00 9.8 3 Noroeste 9 Norte 0 -- -- 94
2019-09-27 20:00:00 10.9 4 Noroeste 9 Noroeste 0 -- -- 90
2019-09-27 19:00:00 13.3 3 Noroeste 12 Sur 0 -- -- 80
2019-09-27 18:00:00 14.8 4 Norte 15 Noroeste 0 -- -- 78
2019-09-27 17:00:00 14.8 4 Este 11 Este 0 -- -- 88
2019-09-27 16:00:00 14.7 4 Nordeste 10 Este 0 -- -- 93
2019-09-27 15:00:00 13.2 3 Norte 8 Oeste 1.6 -- -- 96
2019-09-27 14:00:00 13.8 3 Noroeste 9 Oeste 0.2 -- -- 91
2019-09-27 13:00:00 13.5 4 Noroeste 11 Oeste 0 -- -- 93
2019-09-27 12:00:00 12.2 2 Norte 7 Oeste 0 -- -- 97
2019-09-27 11:00:00 11.3 3 Noroeste 8 Oeste 0.2 -- -- 97
2019-09-27 10:00:00 11.1 2 Nordeste 5 Sur 0.4 -- -- 97
2019-09-27 09:00:00 10.7 0 Calma 4 Oeste 0 -- -- 97
2019-09-27 08:00:00 10.6 2 Norte 6 Noroeste 0.2 -- -- 95
2019-09-27 07:00:00 10.8 2 Norte 9 Oeste 0 -- -- 91
2019-09-27 06:00:00 10.5 0 Calma 6 Noroeste 0 -- -- 91
2019-09-27 05:00:00 10.2 0 Calma 9 Noroeste 0 -- -- 90
2019-09-27 04:00:00 8.2 0 Calma 9 Noroeste 0 -- -- 99
2019-09-27 03:00:00 6.2 3 Noroeste 8 Noroeste 0 -- -- 95
2019-09-27 02:00:00 8.2 2 Norte 6 Norte 0 -- -- 95
2019-09-27 01:00:00 6.4 4 Noroeste 10 Oeste 0 -- -- 89
2019-09-27 00:00:00 7 2 Noroeste 7 Noroeste 0 -- -- 93
2019-09-26 23:00:00 8.2 3 Noroeste 8 Noroeste 0 -- -- 82
2019-09-26 22:00:00 8.5 3 Noroeste 8 Noroeste 0 -- -- 70
2019-09-26 21:00:00 10.7 3 Oeste 10 Oeste 0 -- -- 62
2019-09-26 20:00:00 13 5 Noroeste 11 Noroeste 0 -- -- 66
2019-09-26 19:00:00 16.1 2 Norte 8 Noroeste 0 -- -- 62
2019-09-26 18:00:00 18.9 3 Nordeste 10 Sur 0 -- -- 51
2019-09-26 17:00:00 19.7 4 Sudeste 18 Sudoeste 0 -- -- 53
2019-09-26 16:00:00 20.5 7 Sudeste 14 Sudeste 0 -- -- 52
2019-09-26 15:00:00 19.6 3 Nordeste 12 Oeste 0 -- -- 47
2019-09-26 14:00:00 17.9 5 Noroeste 16 Sur 0 -- -- 51
2019-09-26 13:00:00 17.9 6 Sur 12 Sur 0 -- -- 53
2019-09-26 12:00:00 15.7 3 Sudeste 8 Sur 0 -- -- 61
2019-09-26 11:00:00 13.1 3 Sudeste 7 Sur 0 -- -- 73
2019-09-26 10:00:00 9.1 0 Calma 5 Noroeste 0 -- -- 93
2019-09-26 09:00:00 5.4 2 Noroeste 8 Noroeste 0 -- -- 97
2019-09-26 08:00:00 4.8 3 Noroeste 9 Noroeste 0 -- -- 98
2019-09-26 07:00:00 5.3 3 Noroeste 9 Noroeste 0 -- -- 99
2019-09-26 06:00:00 5.4 5 Noroeste 8 Noroeste 0.2 -- -- 98
2019-09-26 05:00:00 5.8 5 Noroeste 7 Noroeste 0 -- -- 99
2019-09-26 04:00:00 6.3 4 Noroeste 6 Noroeste 0 -- -- 99
2019-09-26 03:00:00 6.7 2 Noroeste 6 Noroeste 0 -- -- 98
2019-09-26 02:00:00 6.9 3 Noroeste 5 Noroeste 0 -- -- 99
2019-09-26 01:00:00 7.2 2 Oeste 4 Noroeste 0 -- -- 98
2019-09-26 00:00:00 7.5 3 Noroeste 5 Noroeste 0 -- -- 98
2019-09-25 23:00:00 8 2 Oeste 6 Oeste 0 -- -- 97
2019-09-25 22:00:00 8.3 4 Noroeste 6 Noroeste 0 -- -- 96
2019-09-25 21:00:00 10 2 Oeste 9 Noroeste 0 -- -- 91
2019-09-25 20:00:00 11.2 0 Calma 8 Norte 0 -- -- 88
2019-09-25 19:00:00 13.2 3 Este 14 Sudoeste 0 -- -- 82
2019-09-25 18:00:00 14.8 3 Norte 13 Sur 0 -- -- 75
2019-09-25 17:00:00 14.5 3 Sur 9 Sur 0 -- -- 77
2019-09-25 16:00:00 13.9 4 Este 12 Noroeste 0 -- -- 81
2019-09-25 15:00:00 13.2 3 Sudeste 15 Sur 0 -- -- 82
2019-09-25 14:00:00 12.8 4 Noroeste 9 Noroeste 0 -- -- 80
2019-09-25 13:00:00 12.2 3 Nordeste 13 Sur 0 -- -- 85
2019-09-25 12:00:00 9.6 3 Nordeste 10 Sudoeste 0 -- -- 94
2019-09-25 11:00:00 8.6 4 Noroeste 12 Noroeste 0 -- -- 97
2019-09-25 10:00:00 7.8 3 Noroeste 5 Noroeste 0 -- -- 97
2019-09-25 09:00:00 7.2 3 Noroeste 10 Oeste 0 -- -- 98
2019-09-25 08:00:00 7.1 0 Calma 9 Noroeste 0 -- -- 98
2019-09-25 07:00:00 7.2 3 Noroeste 10 Oeste 0 -- -- 98
2019-09-25 06:00:00 7.4 3 Noroeste 9 Noroeste 0 -- -- 98
2019-09-25 05:00:00 7.5 0 Calma 4 Nordeste 0.4 -- -- 97
2019-09-25 04:00:00 7.5 0 Calma 5 Noroeste 0 -- -- 96
2019-09-25 03:00:00 7.8 0 Calma 6 Nordeste 0 -- -- 93
2019-09-25 02:00:00 8 2 Norte 11 Oeste 0 -- -- 88
2019-09-25 01:00:00 8.5 2 Norte 12 Oeste 0 -- -- 86
2019-09-25 00:00:00 8.9 6 Noroeste 18 Noroeste 0 -- -- 82
2019-09-24 23:00:00 9.1 3 Norte 18 Noroeste 0 -- -- 81
2019-09-24 22:00:00 9.4 5 Noroeste 23 Noroeste 0 -- -- 77
2019-09-24 21:00:00 10.2 9 Noroeste 19 Oeste 0 -- -- 77
2019-09-24 20:00:00 11.7 3 Noroeste 9 Noroeste 0 -- -- 83
2019-09-24 19:00:00 13 2 Noroeste 10 Noroeste 0 -- -- 80
2019-09-24 18:00:00 14.3 4 Noroeste 18 Noroeste 0 -- -- 71
2019-09-24 17:00:00 14.5 5 Noroeste 24 Oeste 0 -- -- 72
2019-09-24 16:00:00 13.9 5 Norte 21 Noroeste 0 -- -- 74
2019-09-24 15:00:00 13.6 4 Norte 16 Este 0 -- -- 84
2019-09-24 14:00:00 14.9 6 Este 20 Oeste 0 -- -- 91
2019-09-24 13:00:00 15.6 4 Norte 13 Este 0 -- -- 83
2019-09-24 12:00:00 14 4 Norte 14 Noroeste 0 -- -- 92
2019-09-24 11:00:00 12.9 6 Noroeste 21 Noroeste 0 -- -- 95
2019-09-24 10:00:00 12.1 6 Noroeste 14 Noroeste 0.4 -- -- 97
2019-09-24 09:00:00 11.7 0 Calma 12 Oeste 0.2 -- -- 99
2019-09-24 08:00:00 11.4 4 Noroeste 9 Noroeste 0.6 -- -- 99
2019-09-24 07:00:00 11.3 4 Noroeste 13 Noroeste 1 -- -- 97
2019-09-24 06:00:00 11.5 4 Noroeste 21 Noroeste 0.4 -- -- 95
2019-09-24 05:00:00 12.1 7 Noroeste 28 Noroeste 0.6 -- -- 92
2019-09-24 04:00:00 12.8 5 Oeste 38 Noroeste 0 -- -- 89
2019-09-24 03:00:00 13.1 9 Noroeste 24 Noroeste 0 -- -- 87
2019-09-24 02:00:00 12.5 4 Sudoeste 18 Noroeste 0 -- -- 91
2019-09-24 01:00:00 12.1 4 Sudoeste 21 Sudeste 0 -- -- 93
2019-09-24 00:00:00 11.7 4 Norte 9 Norte 0 -- -- 95
2019-09-23 23:00:00 11.6 3 Noroeste 8 Oeste 0 -- -- 95
2019-09-23 22:00:00 11.6 0 Calma 11 Oeste 0 -- -- 96
2019-09-23 21:00:00 11.5 5 Noroeste 14 Noroeste 0 -- -- 95
2019-09-23 20:00:00 10.7 2 Nordeste 6 Nordeste 0.2 -- -- 96
2019-09-23 19:00:00 10.8 2 Nordeste 18 Sudeste 1.2 -- -- 93
2019-09-23 18:00:00 11.2 4 Nordeste 8 Este 0.8 -- -- 89
2019-09-23 17:00:00 12.3 0 Calma 13 Sur 0 -- -- 81
2019-09-23 16:00:00 12.8 4 Este 18 Sudeste 0 -- -- 75
2019-09-23 15:00:00 13.1 8 Sudeste 17 Sudeste 0 -- -- 72
2019-09-23 14:00:00 13.3 7 Sudeste 21 Sur 0 -- -- 69
2019-09-23 13:00:00 13.2 8 Sudeste 23 Sudoeste 0 -- -- 72
2019-09-23 12:00:00 11.5 6 Sudeste 20 Sur 0 -- -- 80
2019-09-23 11:00:00 9.1 0 Calma 6 Sudeste 0 -- -- 88
2019-09-23 10:00:00 8.3 2 Noroeste 9 Sur 0.2 -- -- 91
2019-09-23 09:00:00 7.3 3 Oeste 7 Sudoeste 0 -- -- 95
2019-09-23 08:00:00 7.5 5 Nordeste 17 Este 0.2 -- -- 94
2019-09-23 07:00:00 6.7 0 Calma 6 Noroeste 0 -- -- 97
2019-09-23 06:00:00 6 2 Noroeste 7 Sur 0 -- -- 98
2019-09-23 05:00:00 6.1 3 Noroeste 8 Oeste 0 -- -- 98
2019-09-23 04:00:00 6.3 4 Noroeste 6 Noroeste 0 -- -- 98
2019-09-23 03:00:00 6.5 5 Noroeste 10 Norte 0 -- -- 96
2019-09-23 02:00:00 6.6 4 Noroeste 10 Oeste 0 -- -- 96
2019-09-23 01:00:00 6.8 6 Noroeste 12 Noroeste 0 -- -- 98
2019-09-23 00:00:00 6.7 3 Noroeste 6 Noroeste 0 -- -- 99
2019-09-22 23:00:00 6.5 4 Noroeste 8 Noroeste 0 -- -- 98
2019-09-22 22:00:00 6.9 4 Noroeste 8 Noroeste 0 -- -- 97
2019-09-22 21:00:00 8.3 3 Noroeste 5 Noroeste 0 -- -- 96
2019-09-22 20:00:00 10 2 Noroeste 4 Noroeste 0 -- -- 94
2019-09-22 19:00:00 10.7 0 Calma 7 Sudeste 0 -- -- 92
2019-09-22 18:00:00 10.5 0 Calma 6 Este 0.2 -- -- 91
2019-09-22 17:00:00 10.8 3 Noroeste 10 Oeste 0.8 -- -- 87
2019-09-22 16:00:00 11.3 6 Noroeste 13 Sur 0 -- -- 77
2019-09-22 15:00:00 11.2 3 Noroeste 14 Noroeste 0 -- -- 77
2019-09-22 14:00:00 10.6 3 Nordeste 11 Noroeste 0 -- -- 81
2019-09-22 13:00:00 9.8 4 Norte 13 Noroeste 0 -- -- 88
2019-09-22 12:00:00 9 4 Noroeste 12 Norte 0 -- -- 86
2019-09-22 11:00:00 8.3 0 Calma 8 Noroeste 0 -- -- 88
2019-09-22 10:00:00 6.5 0 Calma 8 Noroeste 0 -- -- 94
2019-09-22 09:00:00 6.2 3 Noroeste 16 Noroeste 0 -- -- 92
2019-09-22 08:00:00 6.3 4 Noroeste 9 Noroeste 0 -- -- 93
2019-09-22 07:00:00 6.9 4 Noroeste 11 Noroeste 0 -- -- 93
2019-09-22 06:00:00 7.9 4 Noroeste 17 Noroeste 0 -- -- 92
2019-09-22 05:00:00 8.3 4 Norte 15 Oeste 0 -- -- 91
2019-09-22 04:00:00 8.1 6 Noroeste 18 Noroeste 0 -- -- 91
2019-09-22 03:00:00 8.1 7 Noroeste 19 Noroeste 0 -- -- 91
2019-09-22 02:00:00 8.1 5 Noroeste 18 Oeste 0 -- -- 93
2019-09-22 01:00:00 7.9 6 Noroeste 18 Noroeste 0 -- -- 94
2019-09-22 00:00:00 8 4 Norte 19 Este 0.2 -- -- 92